Location: Berlin
(52.5170°N, 13.4000°E)
Time: 15:59:54
(UTC+02:00)

ISS - Pass Details

Date: 18 July 2018
Orbit: 402 x 408 km, 51.6° (Epoch: 23 July)

Event Time Altitude Azimuth Distance (km) Brightness Sun altitude
Exits shadow 23:58:04 33° 177° (S) 702 -3.2 -14.8°
Maximum altitude 23:58:33 35° 155° (SSE) 670 -3.3 -14.8°
Drops below altitude 10° 00:01:36 10° 87° (E) 1,470 -1.1 -15.0°
Sets 00:03:47 0° 79° (E) 2,334 0.0 -15.1°
